Year,Month,Day,Hour,Minute,Value (Times are PST for temperature in C)
2021,06,28,00,00,25.70
2021,06,28,00,01,25.60
2021,06,28,00,02,25.60
2021,06,28,00,03,25.60
2021,06,28,00,04,25.60
2021,06,28,00,05,25.60
2021,06,28,00,06,25.50
2021,06,28,00,07,25.50
2021,06,28,00,08,25.50
2021,06,28,00,09,25.50
2021,06,28,00,10,25.50
2021,06,28,00,11,25.50
2021,06,28,00,12,25.40
2021,06,28,00,13,25.40
2021,06,28,00,14,25.40
2021,06,28,00,15,25.40
2021,06,28,00,16,25.40
2021,06,28,00,17,25.30
2021,06,28,00,18,25.30
2021,06,28,00,19,25.30
2021,06,28,00,20,25.30
2021,06,28,00,21,25.30
2021,06,28,00,22,25.30
2021,06,28,00,23,25.30
2021,06,28,00,24,25.20
2021,06,28,00,25,25.20
2021,06,28,00,26,25.20
2021,06,28,00,27,25.20
2021,06,28,00,28,25.20
2021,06,28,00,29,25.10
2021,06,28,00,30,25.10
2021,06,28,00,31,25.10
2021,06,28,00,32,25.10
2021,06,28,00,33,25.00
2021,06,28,00,34,25.00
2021,06,28,00,35,25.00
2021,06,28,00,36,25.00
2021,06,28,00,37,25.00
2021,06,28,00,38,24.90
2021,06,28,00,39,24.90
2021,06,28,00,40,24.90
2021,06,28,00,41,24.90
2021,06,28,00,42,24.80
2021,06,28,00,43,24.80
2021,06,28,00,44,24.80
2021,06,28,00,45,24.80
2021,06,28,00,46,24.70
2021,06,28,00,47,24.70
2021,06,28,00,48,24.70
2021,06,28,00,49,24.60
2021,06,28,00,50,24.60
2021,06,28,00,51,24.60
2021,06,28,00,52,24.60
2021,06,28,00,53,24.50
2021,06,28,00,54,24.50
2021,06,28,00,55,24.50
2021,06,28,00,56,24.40
2021,06,28,00,57,24.40
2021,06,28,00,58,24.40
2021,06,28,00,59,24.30
2021,06,28,01,00,24.30
2021,06,28,01,01,24.30
2021,06,28,01,02,24.30
2021,06,28,01,03,24.20
2021,06,28,01,04,24.20
2021,06,28,01,05,24.20
2021,06,28,01,06,24.20
2021,06,28,01,07,24.30
2021,06,28,01,08,24.30
2021,06,28,01,09,24.30
2021,06,28,01,10,24.30
2021,06,28,01,11,24.40
2021,06,28,01,12,24.40
2021,06,28,01,13,24.40
2021,06,28,01,14,24.40
2021,06,28,01,15,24.40
2021,06,28,01,16,24.40
2021,06,28,01,17,24.40
2021,06,28,01,18,24.40
2021,06,28,01,19,24.40
2021,06,28,01,20,24.40
2021,06,28,01,21,24.40
2021,06,28,01,22,24.30
2021,06,28,01,23,24.30
2021,06,28,01,24,24.30
2021,06,28,01,25,24.30
2021,06,28,01,26,24.20
2021,06,28,01,27,24.20
2021,06,28,01,28,24.20
2021,06,28,01,29,24.20
2021,06,28,01,30,24.20
2021,06,28,01,31,24.20
2021,06,28,01,32,24.20
2021,06,28,01,33,24.20
2021,06,28,01,34,24.20
2021,06,28,01,35,24.20
2021,06,28,01,36,24.20
2021,06,28,01,37,24.20
2021,06,28,01,38,24.20
2021,06,28,01,39,24.20
2021,06,28,01,40,24.20
2021,06,28,01,41,24.20
2021,06,28,01,42,24.20
2021,06,28,01,43,24.10
2021,06,28,01,44,24.10
2021,06,28,01,45,24.10
2021,06,28,01,46,24.10
2021,06,28,01,47,24.10
2021,06,28,01,48,24.00
2021,06,28,01,49,24.00
2021,06,28,01,50,24.00
2021,06,28,01,51,23.90
2021,06,28,01,52,23.90
2021,06,28,01,53,23.90
2021,06,28,01,54,23.90
2021,06,28,01,55,23.90
2021,06,28,01,56,23.90
2021,06,28,01,57,23.80
2021,06,28,01,58,23.80
2021,06,28,01,59,23.80
2021,06,28,02,00,23.80
2021,06,28,02,01,23.80
2021,06,28,02,02,23.80
2021,06,28,02,03,23.80
2021,06,28,02,04,23.80
2021,06,28,02,05,23.80
2021,06,28,02,06,23.80
2021,06,28,02,07,23.80
2021,06,28,02,08,23.80
2021,06,28,02,09,23.80
2021,06,28,02,10,23.80
2021,06,28,02,11,23.80
2021,06,28,02,12,23.70
2021,06,28,02,13,23.70
2021,06,28,02,14,23.70
2021,06,28,02,15,23.70
2021,06,28,02,16,23.70
2021,06,28,02,17,23.70
2021,06,28,02,18,23.70
2021,06,28,02,19,23.70
2021,06,28,02,20,23.70
2021,06,28,02,21,23.70
2021,06,28,02,22,23.70
2021,06,28,02,23,23.70
2021,06,28,02,24,23.70
2021,06,28,02,25,23.70
2021,06,28,02,26,23.70
2021,06,28,02,27,23.70
2021,06,28,02,28,23.70
2021,06,28,02,29,23.70
2021,06,28,02,30,23.60
2021,06,28,02,31,23.70
2021,06,28,02,32,23.70
2021,06,28,02,33,23.60
2021,06,28,02,34,23.60
2021,06,28,02,35,23.70
2021,06,28,02,36,23.60
2021,06,28,02,37,23.60
2021,06,28,02,38,23.60
2021,06,28,02,39,23.60
2021,06,28,02,40,23.60
2021,06,28,02,41,23.60
2021,06,28,02,42,23.60
2021,06,28,02,43,23.60
2021,06,28,02,44,23.60
2021,06,28,02,45,23.60
2021,06,28,02,46,23.60
2021,06,28,02,47,23.60
2021,06,28,02,48,23.50
2021,06,28,02,49,23.50
2021,06,28,02,50,23.50
2021,06,28,02,51,23.50
2021,06,28,02,52,23.60
2021,06,28,02,53,23.60
2021,06,28,02,54,23.60
2021,06,28,02,55,23.60
2021,06,28,02,56,23.60
2021,06,28,02,57,23.60
2021,06,28,02,58,23.60
2021,06,28,02,59,23.60
2021,06,28,03,00,23.60
2021,06,28,03,01,23.70
2021,06,28,03,02,23.70
2021,06,28,03,03,23.60
2021,06,28,03,04,23.60
2021,06,28,03,05,23.60
2021,06,28,03,06,23.60
2021,06,28,03,07,23.60
2021,06,28,03,08,23.60
2021,06,28,03,09,23.60
2021,06,28,03,10,23.50
2021,06,28,03,11,23.50
2021,06,28,03,12,23.50
2021,06,28,03,13,23.40
2021,06,28,03,14,23.40
2021,06,28,03,15,23.40
2021,06,28,03,16,23.40
2021,06,28,03,17,23.30
2021,06,28,03,18,23.30
2021,06,28,03,19,23.30
2021,06,28,03,20,23.30
2021,06,28,03,21,23.20
2021,06,28,03,22,23.20
2021,06,28,03,23,23.20
2021,06,28,03,24,23.20
2021,06,28,03,25,23.20
2021,06,28,03,26,23.20
2021,06,28,03,27,23.20
2021,06,28,03,28,23.20
2021,06,28,03,29,23.30
2021,06,28,03,30,23.30
2021,06,28,03,31,23.20
2021,06,28,03,32,23.20
2021,06,28,03,33,23.20
2021,06,28,03,34,23.20
2021,06,28,03,35,23.20
2021,06,28,03,36,23.20
2021,06,28,03,37,23.20
2021,06,28,03,38,23.10
2021,06,28,03,39,23.10
2021,06,28,03,40,23.10
2021,06,28,03,41,23.00
2021,06,28,03,42,23.00
2021,06,28,03,43,23.00
2021,06,28,03,44,22.90
2021,06,28,03,45,22.90
2021,06,28,03,46,22.90
2021,06,28,03,47,22.80
2021,06,28,03,48,22.80
2021,06,28,03,49,22.80
2021,06,28,03,50,22.80
2021,06,28,03,51,22.80
2021,06,28,03,52,22.80
2021,06,28,03,53,22.80
2021,06,28,03,54,22.80
2021,06,28,03,55,22.80
2021,06,28,03,56,22.80
2021,06,28,03,57,22.80
2021,06,28,03,58,22.80
2021,06,28,03,59,22.80
2021,06,28,04,00,22.80
2021,06,28,04,01,22.80
2021,06,28,04,02,22.80
2021,06,28,04,03,22.80
2021,06,28,04,04,22.80
2021,06,28,04,05,22.80
2021,06,28,04,06,22.80
2021,06,28,04,07,22.80
2021,06,28,04,08,22.80
2021,06,28,04,09,22.80
2021,06,28,04,10,22.80
2021,06,28,04,11,22.80
2021,06,28,04,12,22.70
2021,06,28,04,13,22.70
2021,06,28,04,14,22.70
2021,06,28,04,15,22.70
2021,06,28,04,16,22.70
2021,06,28,04,17,22.70
2021,06,28,04,18,22.60
2021,06,28,04,19,22.60
2021,06,28,04,20,22.60
2021,06,28,04,21,22.60
2021,06,28,04,22,22.60
2021,06,28,04,23,22.60
2021,06,28,04,24,22.70
2021,06,28,04,25,22.70
2021,06,28,04,26,22.70
2021,06,28,04,27,22.70
2021,06,28,04,28,22.70
2021,06,28,04,29,22.70
2021,06,28,04,30,22.70
2021,06,28,04,31,22.70
2021,06,28,04,32,22.70
2021,06,28,04,33,22.70
2021,06,28,04,34,22.60
2021,06,28,04,35,22.60
2021,06,28,04,36,22.60
2021,06,28,04,37,22.60
2021,06,28,04,38,22.60
2021,06,28,04,39,22.60
2021,06,28,04,40,22.70
2021,06,28,04,41,22.60
2021,06,28,04,42,22.60
2021,06,28,04,43,22.60
2021,06,28,04,44,22.60
2021,06,28,04,45,22.60
2021,06,28,04,46,22.60
2021,06,28,04,47,22.50
2021,06,28,04,48,22.50
2021,06,28,04,49,22.40
2021,06,28,04,50,22.40
2021,06,28,04,51,22.30
2021,06,28,04,52,22.30
2021,06,28,04,53,22.30
2021,06,28,04,54,22.20
2021,06,28,04,55,22.20
2021,06,28,04,56,22.10
2021,06,28,04,57,22.10
2021,06,28,04,58,22.00
2021,06,28,04,59,22.00
2021,06,28,05,00,21.90
2021,06,28,05,01,21.90
2021,06,28,05,02,21.90
2021,06,28,05,03,21.80
2021,06,28,05,04,21.80
2021,06,28,05,05,21.70
2021,06,28,05,06,21.70
2021,06,28,05,07,21.70
2021,06,28,05,08,21.60
2021,06,28,05,09,21.60
2021,06,28,05,10,21.60
2021,06,28,05,11,21.60
2021,06,28,05,12,21.60
2021,06,28,05,13,21.50
2021,06,28,05,14,21.50
2021,06,28,05,15,21.50
2021,06,28,05,16,21.50
2021,06,28,05,17,21.40
2021,06,28,05,18,21.50
2021,06,28,05,19,21.50
2021,06,28,05,20,21.50
2021,06,28,05,21,21.50
2021,06,28,05,22,21.50
2021,06,28,05,23,21.50
2021,06,28,05,24,21.50
2021,06,28,05,25,21.50
2021,06,28,05,26,21.50
2021,06,28,05,27,21.50
2021,06,28,05,28,21.40
2021,06,28,05,29,21.40
2021,06,28,05,30,21.40
2021,06,28,05,31,21.40
2021,06,28,05,32,21.40
2021,06,28,05,33,21.40
2021,06,28,05,34,21.30
2021,06,28,05,35,21.30
2021,06,28,05,36,21.30
2021,06,28,05,37,21.30
2021,06,28,05,38,21.40
2021,06,28,05,39,21.40
2021,06,28,05,40,21.40
2021,06,28,05,41,21.40
2021,06,28,05,42,21.50
2021,06,28,05,43,21.50
2021,06,28,05,44,21.60
2021,06,28,05,45,21.60
2021,06,28,05,46,21.70
2021,06,28,05,47,21.70
2021,06,28,05,48,21.70
2021,06,28,05,49,21.80
2021,06,28,05,50,21.80
2021,06,28,05,51,21.80
2021,06,28,05,52,21.80
2021,06,28,05,53,21.80
2021,06,28,05,54,21.80
2021,06,28,05,55,21.80
2021,06,28,05,56,21.80
2021,06,28,05,57,21.70
2021,06,28,05,58,21.70
2021,06,28,05,59,21.70
2021,06,28,06,00,21.70
2021,06,28,06,01,21.70
2021,06,28,06,02,21.70
2021,06,28,06,03,21.60
2021,06,28,06,04,21.60
2021,06,28,06,05,21.60
2021,06,28,06,06,21.60
2021,06,28,06,07,21.60
2021,06,28,06,08,21.50
2021,06,28,06,09,21.50
2021,06,28,06,10,21.50
2021,06,28,06,11,21.50
2021,06,28,06,12,21.50
2021,06,28,06,13,21.50
2021,06,28,06,14,21.50
2021,06,28,06,15,21.50
2021,06,28,06,16,21.40
2021,06,28,06,17,21.40
2021,06,28,06,18,21.40
2021,06,28,06,19,21.40
2021,06,28,06,20,21.40
2021,06,28,06,21,21.40
2021,06,28,06,22,21.40
2021,06,28,06,23,21.40
2021,06,28,06,24,21.40
2021,06,28,06,25,21.40
2021,06,28,06,26,21.40
2021,06,28,06,27,21.40
2021,06,28,06,28,21.40
2021,06,28,06,29,21.50
2021,06,28,06,30,21.50
2021,06,28,06,31,21.60
2021,06,28,06,32,21.60
2021,06,28,06,33,21.60
2021,06,28,06,34,21.60
2021,06,28,06,35,21.60
2021,06,28,06,36,21.70
2021,06,28,06,37,21.80
2021,06,28,06,38,21.90
2021,06,28,06,39,22.00
2021,06,28,06,40,22.10
2021,06,28,06,41,22.10
2021,06,28,06,42,22.20
2021,06,28,06,43,22.30
2021,06,28,06,44,22.40
2021,06,28,06,45,22.50
2021,06,28,06,46,22.60
2021,06,28,06,47,22.70
2021,06,28,06,48,22.70
2021,06,28,06,49,22.80
2021,06,28,06,50,22.80
2021,06,28,06,51,22.90
2021,06,28,06,52,22.90
2021,06,28,06,53,22.90
2021,06,28,06,54,23.00
2021,06,28,06,55,23.10
2021,06,28,06,56,23.10
2021,06,28,06,57,23.10
2021,06,28,06,58,23.20
2021,06,28,06,59,23.20
2021,06,28,07,00,23.20
2021,06,28,07,01,23.30
2021,06,28,07,02,23.30
2021,06,28,07,03,23.30
2021,06,28,07,04,23.30
2021,06,28,07,05,23.40
2021,06,28,07,06,23.40
2021,06,28,07,07,23.50
2021,06,28,07,08,23.50
2021,06,28,07,09,23.50
2021,06,28,07,10,23.60
2021,06,28,07,11,23.60
2021,06,28,07,12,23.60
2021,06,28,07,13,23.60
2021,06,28,07,14,23.60
2021,06,28,07,15,23.70
2021,06,28,07,16,23.70
2021,06,28,07,17,23.70
2021,06,28,07,18,23.80
2021,06,28,07,19,23.80
2021,06,28,07,20,23.80
2021,06,28,07,21,23.90
2021,06,28,07,22,23.90
2021,06,28,07,23,24.00
2021,06,28,07,24,24.10
2021,06,28,07,25,24.10
2021,06,28,07,26,24.20
2021,06,28,07,27,24.20
2021,06,28,07,28,24.20
2021,06,28,07,29,24.30
2021,06,28,07,30,24.40
2021,06,28,07,31,24.50
2021,06,28,07,32,24.50
2021,06,28,07,33,24.60
2021,06,28,07,34,24.70
2021,06,28,07,35,24.70
2021,06,28,07,36,24.80
2021,06,28,07,37,24.80
2021,06,28,07,38,24.90
2021,06,28,07,39,25.00
2021,06,28,07,40,25.00
2021,06,28,07,41,25.10
2021,06,28,07,42,25.10
2021,06,28,07,43,25.10
2021,06,28,07,44,25.20
2021,06,28,07,45,25.20
2021,06,28,07,46,25.20
2021,06,28,07,47,25.20
2021,06,28,07,48,25.30
2021,06,28,07,49,25.30
2021,06,28,07,50,25.30
2021,06,28,07,51,25.30
2021,06,28,07,52,25.40
2021,06,28,07,53,25.50
2021,06,28,07,54,25.50
2021,06,28,07,55,25.60
2021,06,28,07,56,25.60
2021,06,28,07,57,25.70
2021,06,28,07,58,25.70
2021,06,28,07,59,25.80
2021,06,28,08,00,25.80
2021,06,28,08,01,25.90
2021,06,28,08,02,25.90
2021,06,28,08,03,26.00
2021,06,28,08,04,26.00
2021,06,28,08,05,26.10
2021,06,28,08,06,26.20
2021,06,28,08,07,26.20
2021,06,28,08,08,26.20
2021,06,28,08,09,26.30
2021,06,28,08,10,26.30
2021,06,28,08,11,26.40
2021,06,28,08,12,26.40
2021,06,28,08,13,26.40
2021,06,28,08,14,26.60
2021,06,28,08,15,26.60
2021,06,28,08,16,26.70
2021,06,28,08,17,26.80
2021,06,28,08,18,27.00
2021,06,28,08,19,27.10
2021,06,28,08,20,27.20
2021,06,28,08,21,27.40
2021,06,28,08,22,27.50
2021,06,28,08,23,27.80
2021,06,28,08,24,28.00
2021,06,28,08,25,28.20
2021,06,28,08,26,28.40
2021,06,28,08,27,28.60
2021,06,28,08,28,28.60
2021,06,28,08,29,28.70
2021,06,28,08,30,28.70
2021,06,28,08,31,28.80
2021,06,28,08,32,28.80
2021,06,28,08,33,28.90
2021,06,28,08,34,29.00
2021,06,28,08,35,29.10
2021,06,28,08,36,29.20
2021,06,28,08,37,29.30
2021,06,28,08,38,29.40
2021,06,28,08,39,29.50
2021,06,28,08,40,29.70
2021,06,28,08,41,29.90
2021,06,28,08,42,30.00
2021,06,28,08,43,30.30
2021,06,28,08,44,30.50
2021,06,28,08,45,30.70
2021,06,28,08,46,30.90
2021,06,28,08,47,31.10
2021,06,28,08,48,31.30
2021,06,28,08,49,31.50
2021,06,28,08,50,31.70
2021,06,28,08,51,31.90
2021,06,28,08,52,32.10
2021,06,28,08,53,32.30
2021,06,28,08,54,32.40
2021,06,28,08,55,32.60
2021,06,28,08,56,32.70
2021,06,28,08,57,32.70
2021,06,28,08,58,32.80
2021,06,28,08,59,32.80
2021,06,28,09,00,32.80
2021,06,28,09,01,32.90
2021,06,28,09,02,32.90
2021,06,28,09,03,32.90
2021,06,28,09,04,32.90
2021,06,28,09,05,32.80
2021,06,28,09,06,32.80
2021,06,28,09,07,32.80
2021,06,28,09,08,32.70
2021,06,28,09,09,32.60
2021,06,28,09,10,32.60
2021,06,28,09,11,32.60
2021,06,28,09,12,32.50
2021,06,28,09,13,32.50
2021,06,28,09,14,32.50
2021,06,28,09,15,32.50
2021,06,28,09,16,32.60
2021,06,28,09,17,32.60
2021,06,28,09,18,32.50
2021,06,28,09,19,32.50
2021,06,28,09,20,32.50
2021,06,28,09,21,32.40
2021,06,28,09,22,32.50
2021,06,28,09,23,32.50
2021,06,28,09,24,32.50
2021,06,28,09,25,32.50
2021,06,28,09,26,32.50
2021,06,28,09,27,32.50
2021,06,28,09,28,32.60
2021,06,28,09,29,32.70
2021,06,28,09,30,32.90
2021,06,28,09,31,33.00
2021,06,28,09,32,33.20
2021,06,28,09,33,33.30
2021,06,28,09,34,33.40
2021,06,28,09,35,33.50
2021,06,28,09,36,33.70
2021,06,28,09,37,33.80
2021,06,28,09,38,33.90
2021,06,28,09,39,34.00
2021,06,28,09,40,34.00
2021,06,28,09,41,34.10
2021,06,28,09,42,34.20
2021,06,28,09,43,34.20
2021,06,28,09,44,34.20
2021,06,28,09,45,34.30
2021,06,28,09,46,34.30
2021,06,28,09,47,34.30
2021,06,28,09,48,34.40
2021,06,28,09,49,34.40
2021,06,28,09,50,34.40
2021,06,28,09,51,34.50
2021,06,28,09,52,34.50
2021,06,28,09,53,34.50
2021,06,28,09,54,34.50
2021,06,28,09,55,34.50
2021,06,28,09,56,34.60
2021,06,28,09,57,34.60
2021,06,28,09,58,34.60
2021,06,28,09,59,34.60
2021,06,28,10,00,34.60
2021,06,28,10,01,34.50
2021,06,28,10,02,34.40
2021,06,28,10,03,34.40
2021,06,28,10,04,34.50
2021,06,28,10,05,34.50
2021,06,28,10,06,34.60
2021,06,28,10,07,34.70
2021,06,28,10,08,34.80
2021,06,28,10,09,34.80
2021,06,28,10,10,34.80
2021,06,28,10,11,34.70
2021,06,28,10,12,34.70
2021,06,28,10,13,34.60
2021,06,28,10,14,34.60
2021,06,28,10,15,34.60
2021,06,28,10,16,34.70
2021,06,28,10,17,34.60
2021,06,28,10,18,34.60
2021,06,28,10,19,34.60
2021,06,28,10,20,34.60
2021,06,28,10,21,34.60
2021,06,28,10,22,34.70
2021,06,28,10,23,34.70
2021,06,28,10,24,34.80
2021,06,28,10,25,34.90
2021,06,28,10,26,34.90
2021,06,28,10,27,34.90
2021,06,28,10,28,35.00
2021,06,28,10,29,35.00
2021,06,28,10,30,35.00
2021,06,28,10,31,35.10
2021,06,28,10,32,35.10
2021,06,28,10,33,35.10
2021,06,28,10,34,35.20
2021,06,28,10,35,35.30
2021,06,28,10,36,35.30
2021,06,28,10,37,35.40
2021,06,28,10,38,35.40
2021,06,28,10,39,35.40
2021,06,28,10,40,35.40
2021,06,28,10,41,35.40
2021,06,28,10,42,35.40
2021,06,28,10,43,35.40
2021,06,28,10,44,35.40
2021,06,28,10,45,35.50
2021,06,28,10,46,35.70
2021,06,28,10,47,35.80
2021,06,28,10,48,35.90
2021,06,28,10,49,36.20
2021,06,28,10,50,36.30
2021,06,28,10,51,36.50
2021,06,28,10,52,36.50
2021,06,28,10,53,36.60
2021,06,28,10,54,36.50
2021,06,28,10,55,36.40
2021,06,28,10,56,36.30
2021,06,28,10,57,36.30
2021,06,28,10,58,36.20
2021,06,28,10,59,36.20
2021,06,28,11,00,36.10
2021,06,28,11,01,36.10
2021,06,28,11,02,36.20
2021,06,28,11,03,36.20
2021,06,28,11,04,36.20
2021,06,28,11,05,36.20
2021,06,28,11,06,36.20
2021,06,28,11,07,36.20
2021,06,28,11,08,36.30
2021,06,28,11,09,36.30
2021,06,28,11,10,36.30
2021,06,28,11,11,36.40
2021,06,28,11,12,36.40
2021,06,28,11,13,36.50
2021,06,28,11,14,36.60
2021,06,28,11,15,36.60
2021,06,28,11,16,36.60
2021,06,28,11,17,36.60
2021,06,28,11,18,36.60
2021,06,28,11,19,36.60
2021,06,28,11,20,36.50
2021,06,28,11,21,36.60
2021,06,28,11,22,36.60
2021,06,28,11,23,36.80
2021,06,28,11,24,36.90
2021,06,28,11,25,36.90
2021,06,28,11,26,36.90
2021,06,28,11,27,36.90
2021,06,28,11,28,36.90
2021,06,28,11,29,37.00
2021,06,28,11,30,37.10
2021,06,28,11,31,37.20
2021,06,28,11,32,37.30
2021,06,28,11,33,37.30
2021,06,28,11,34,37.30
2021,06,28,11,35,37.30
2021,06,28,11,36,37.40
2021,06,28,11,37,37.40
2021,06,28,11,38,37.50
2021,06,28,11,39,37.50
2021,06,28,11,40,37.50
2021,06,28,11,41,37.40
2021,06,28,11,42,37.30
2021,06,28,11,43,37.30
2021,06,28,11,44,37.30
2021,06,28,11,45,37.40
2021,06,28,11,46,37.60
2021,06,28,11,47,37.70
2021,06,28,11,48,37.80
2021,06,28,11,49,37.80
2021,06,28,11,50,37.90
2021,06,28,11,51,37.90
2021,06,28,11,52,37.90
2021,06,28,11,53,38.00
2021,06,28,11,54,38.10
2021,06,28,11,55,38.10
2021,06,28,11,56,38.10
2021,06,28,11,57,38.10
2021,06,28,11,58,38.00
2021,06,28,11,59,37.90
2021,06,28,12,00,37.90
2021,06,28,12,01,38.00
2021,06,28,12,02,37.90
2021,06,28,12,03,37.90
2021,06,28,12,04,37.90
2021,06,28,12,05,37.90
2021,06,28,12,06,37.90
2021,06,28,12,07,37.90
2021,06,28,12,08,37.90
2021,06,28,12,09,37.80
2021,06,28,12,10,37.80
2021,06,28,12,11,37.80
2021,06,28,12,12,37.70
2021,06,28,12,13,37.70
2021,06,28,12,14,37.60
2021,06,28,12,15,37.60
2021,06,28,12,16,37.60
2021,06,28,12,17,37.60
2021,06,28,12,18,37.60
2021,06,28,12,19,37.70
2021,06,28,12,20,37.70
2021,06,28,12,21,37.80
2021,06,28,12,22,37.90
2021,06,28,12,23,38.00
2021,06,28,12,24,38.00
2021,06,28,12,25,38.00
2021,06,28,12,26,38.20
2021,06,28,12,27,38.30
2021,06,28,12,28,38.30
2021,06,28,12,29,38.20
2021,06,28,12,30,38.10
2021,06,28,12,31,38.10
2021,06,28,12,32,38.20
2021,06,28,12,33,38.20
2021,06,28,12,34,38.30
2021,06,28,12,35,38.40
2021,06,28,12,36,38.50
2021,06,28,12,37,38.60
2021,06,28,12,38,38.70
2021,06,28,12,39,38.70
2021,06,28,12,40,38.60
2021,06,28,12,41,38.60
2021,06,28,12,42,38.50
2021,06,28,12,43,38.50
2021,06,28,12,44,38.50
2021,06,28,12,45,38.50
2021,06,28,12,46,38.60
2021,06,28,12,47,38.60
2021,06,28,12,48,38.70
2021,06,28,12,49,38.70
2021,06,28,12,50,38.70
2021,06,28,12,51,38.80
2021,06,28,12,52,38.80
2021,06,28,12,53,38.90
2021,06,28,12,54,38.90
2021,06,28,12,55,39.00
2021,06,28,12,56,39.10
2021,06,28,12,57,38.90
2021,06,28,12,58,38.90
2021,06,28,12,59,38.80
2021,06,28,13,00,38.80
2021,06,28,13,01,38.90
2021,06,28,13,02,38.90
2021,06,28,13,03,39.00
2021,06,28,13,04,39.20
2021,06,28,13,05,39.30
2021,06,28,13,06,39.30
2021,06,28,13,07,39.30
2021,06,28,13,08,39.30
2021,06,28,13,09,39.40
2021,06,28,13,10,39.50
2021,06,28,13,11,39.50
2021,06,28,13,12,39.30
2021,06,28,13,13,39.40
2021,06,28,13,14,39.50
2021,06,28,13,15,39.70
2021,06,28,13,16,39.90
2021,06,28,13,17,40.00
2021,06,28,13,18,40.10
2021,06,28,13,19,40.20
2021,06,28,13,20,40.30
2021,06,28,13,21,40.30
2021,06,28,13,22,40.30
2021,06,28,13,23,40.30
2021,06,28,13,24,40.40
2021,06,28,13,25,40.40
2021,06,28,13,26,40.40
2021,06,28,13,27,40.30
2021,06,28,13,28,40.20
2021,06,28,13,29,40.10
2021,06,28,13,30,40.00
2021,06,28,13,31,40.00
2021,06,28,13,32,40.00
2021,06,28,13,33,40.10
2021,06,28,13,34,40.20
2021,06,28,13,35,40.30
2021,06,28,13,36,40.30
2021,06,28,13,37,40.30
2021,06,28,13,38,40.40
2021,06,28,13,39,40.30
2021,06,28,13,40,40.20
2021,06,28,13,41,40.20
2021,06,28,13,42,40.30
2021,06,28,13,43,40.30
2021,06,28,13,44,40.20
2021,06,28,13,45,40.30
2021,06,28,13,46,40.30
2021,06,28,13,47,40.30
2021,06,28,13,48,40.30
2021,06,28,13,49,40.40
2021,06,28,13,50,40.50
2021,06,28,13,51,40.60
2021,06,28,13,52,40.70
2021,06,28,13,53,40.80
2021,06,28,13,54,40.80
2021,06,28,13,55,40.70
2021,06,28,13,56,40.70
2021,06,28,13,57,40.70
2021,06,28,13,58,40.70
2021,06,28,13,59,40.70
2021,06,28,14,00,40.70
2021,06,28,14,01,40.80
2021,06,28,14,02,40.70
2021,06,28,14,03,40.70
2021,06,28,14,04,40.60
2021,06,28,14,05,40.50
2021,06,28,14,06,40.50
2021,06,28,14,07,40.50
2021,06,28,14,08,40.50
2021,06,28,14,09,40.50
2021,06,28,14,10,40.40
2021,06,28,14,11,40.40
2021,06,28,14,12,40.40
2021,06,28,14,13,40.50
2021,06,28,14,14,40.50
2021,06,28,14,15,40.50
2021,06,28,14,16,40.60
2021,06,28,14,17,40.70
2021,06,28,14,18,40.70
2021,06,28,14,19,40.60
2021,06,28,14,20,40.50
2021,06,28,14,21,40.50
2021,06,28,14,22,40.60
2021,06,28,14,23,40.70
2021,06,28,14,24,40.80
2021,06,28,14,25,41.00
2021,06,28,14,26,41.20
2021,06,28,14,27,41.40
2021,06,28,14,28,41.50
2021,06,28,14,29,41.60
2021,06,28,14,30,41.50
2021,06,28,14,31,41.50
2021,06,28,14,32,41.40
2021,06,28,14,33,41.40
2021,06,28,14,34,41.40
2021,06,28,14,35,41.50
2021,06,28,14,36,41.50
2021,06,28,14,37,41.70
2021,06,28,14,38,41.80
2021,06,28,14,39,41.90
2021,06,28,14,40,41.90
2021,06,28,14,41,41.90
2021,06,28,14,42,42.00
2021,06,28,14,43,42.00
2021,06,28,14,44,42.00
2021,06,28,14,45,42.00
2021,06,28,14,46,42.00
2021,06,28,14,47,42.00
2021,06,28,14,48,42.00
2021,06,28,14,49,41.90
2021,06,28,14,50,41.70
2021,06,28,14,51,41.40
2021,06,28,14,52,41.30
2021,06,28,14,53,41.40
2021,06,28,14,54,41.40
2021,06,28,14,55,41.40
2021,06,28,14,56,41.50
2021,06,28,14,57,41.60
2021,06,28,14,58,41.60
2021,06,28,14,59,41.70
2021,06,28,15,00,41.60
2021,06,28,15,01,41.50
2021,06,28,15,02,41.30
2021,06,28,15,03,41.20
2021,06,28,15,04,41.10
2021,06,28,15,05,41.20
2021,06,28,15,06,41.20
2021,06,28,15,07,41.20
2021,06,28,15,08,41.30
2021,06,28,15,09,41.30
2021,06,28,15,10,41.30
2021,06,28,15,11,41.20
2021,06,28,15,12,41.20
2021,06,28,15,13,41.20
2021,06,28,15,14,41.30
2021,06,28,15,15,41.30
2021,06,28,15,16,41.40
2021,06,28,15,17,41.50
2021,06,28,15,18,41.60
2021,06,28,15,19,41.60
2021,06,28,15,20,41.60
2021,06,28,15,21,41.60
2021,06,28,15,22,41.60
2021,06,28,15,23,41.70
2021,06,28,15,24,41.70
2021,06,28,15,25,41.70
2021,06,28,15,26,41.70
2021,06,28,15,27,41.60
2021,06,28,15,28,41.60
2021,06,28,15,29,41.60
2021,06,28,15,30,41.50
2021,06,28,15,31,41.50
2021,06,28,15,32,41.40
2021,06,28,15,33,41.40
2021,06,28,15,34,41.40
2021,06,28,15,35,41.40
2021,06,28,15,36,41.30
2021,06,28,15,37,41.20
2021,06,28,15,38,41.20
2021,06,28,15,39,41.30
2021,06,28,15,40,41.40
2021,06,28,15,41,41.50
2021,06,28,15,42,41.60
2021,06,28,15,43,41.50
2021,06,28,15,44,41.50
2021,06,28,15,45,41.40
2021,06,28,15,46,41.50
2021,06,28,15,47,41.50
2021,06,28,15,48,41.50
2021,06,28,15,49,41.60
2021,06,28,15,50,41.70
2021,06,28,15,51,41.80
2021,06,28,15,52,41.90
2021,06,28,15,53,41.80
2021,06,28,15,54,41.80
2021,06,28,15,55,41.70
2021,06,28,15,56,41.70
2021,06,28,15,57,41.70
2021,06,28,15,58,41.70
2021,06,28,15,59,41.70
2021,06,28,16,00,41.70
2021,06,28,16,01,41.70
2021,06,28,16,02,41.70
2021,06,28,16,03,41.80
2021,06,28,16,04,41.70
2021,06,28,16,05,41.70
2021,06,28,16,06,41.70
2021,06,28,16,07,41.60
2021,06,28,16,08,41.50
2021,06,28,16,09,41.40
2021,06,28,16,10,41.40
2021,06,28,16,11,41.50
2021,06,28,16,12,41.60
2021,06,28,16,13,41.60
2021,06,28,16,14,41.60
2021,06,28,16,15,41.50
2021,06,28,16,16,41.50
2021,06,28,16,17,41.50
2021,06,28,16,18,41.50
2021,06,28,16,19,41.40
2021,06,28,16,20,41.50
2021,06,28,16,21,41.50
2021,06,28,16,22,41.70
2021,06,28,16,23,41.80
2021,06,28,16,24,41.90
2021,06,28,16,25,42.10
2021,06,28,16,26,42.10
2021,06,28,16,27,42.10
2021,06,28,16,28,42.00
2021,06,28,16,29,42.00
2021,06,28,16,30,41.90
2021,06,28,16,31,41.90
2021,06,28,16,32,41.90
2021,06,28,16,33,41.80
2021,06,28,16,34,41.70
2021,06,28,16,35,41.60
2021,06,28,16,36,41.60
2021,06,28,16,37,41.50
2021,06,28,16,38,41.50
2021,06,28,16,39,41.50
2021,06,28,16,40,41.60
2021,06,28,16,41,41.70
2021,06,28,16,42,41.80
2021,06,28,16,43,41.90
2021,06,28,16,44,41.90
2021,06,28,16,45,41.90
2021,06,28,16,46,41.90
2021,06,28,16,47,41.90
2021,06,28,16,48,41.90
2021,06,28,16,49,41.90
2021,06,28,16,50,42.00
2021,06,28,16,51,42.00
2021,06,28,16,52,42.00
2021,06,28,16,53,41.90
2021,06,28,16,54,41.80
2021,06,28,16,55,41.60
2021,06,28,16,56,41.60
2021,06,28,16,57,41.50
2021,06,28,16,58,41.50
2021,06,28,16,59,41.60
2021,06,28,17,00,41.60
2021,06,28,17,01,41.60
2021,06,28,17,02,41.60
2021,06,28,17,03,41.60
2021,06,28,17,04,41.60
2021,06,28,17,05,41.70
2021,06,28,17,06,41.80
2021,06,28,17,07,41.90
2021,06,28,17,08,41.90
2021,06,28,17,09,41.90
2021,06,28,17,10,41.80
2021,06,28,17,11,41.80
2021,06,28,17,12,41.80
2021,06,28,17,13,41.70
2021,06,28,17,14,41.70
2021,06,28,17,15,41.70
2021,06,28,17,16,41.60
2021,06,28,17,17,41.50
2021,06,28,17,18,41.50
2021,06,28,17,19,41.50